Retour au catalogue

MARECS B2

ActifCommunicationsMEO
NORAD 15386·PAYLOAD·🇪🇺 EU

Lancé Nov 10, 1984 depuis Guiana Space Centre

Loading…

Prochains Passages (prochaines 24 heures)

TLE

FraisSource: Space-Track

Époque: Sep 14, 2026, 00:02 UTC

1 15386U 84114B   26257.00190309 -.00000250  00000-0  00000-0 0  9993
2 15386  13.3868 332.3483 0109930  57.0908 310.4776  0.95929924113531

Suivez MARECS B2 en temps réel avec AllMySat

Download on the App Store